Regional Weather Roundup
Issued by NWS Newport/Morehead, NC

Current Version | Previous Version | Graphics & Text | Print | Product List | Glossary On
Versions: 1 2 3 4 5 6 7 8 9 10 11 12 13 14 15 16 17 18 19 20 21 22 23 24 25 26 27 28 29 30 31 32 33 34 35 36 37 38 39 40 41 42 43 44 45 46 47 48 49 50
000 ASUS42 KMHX 031113 RWRMHX WEATHER ROUNDUP FOR EASTERN NORTH CAROLINA NATIONAL WEATHER SERVICE NEWPORT/MOREHEAD CITY NC 700 AM EDT MON AUG 03 2015 NOTE: "FAIR" INDICATES FEW OR NO CLOUDS BELOW 12,000 FEET WITH NO SIGNIFICANT WEATHER AND/OR OBSTRUCTIONS TO VISIBILITY NCZ015>017-031-032-045>047-102-103-031200- NORTH COAST CITY SKY/WX TMP DP RH WIND PRES REMARKS EDENTON CLEAR 75 72 89 S7 29.92S ELIZABETH CITY CLEAR 75 74 96 S7 29.91S KITTY HAWK MOSUNNY 76 71 85 SW3 29.92R MANTEO PTCLDY 78 72 83 SW6 29.93S $$ NCZ045>047-081-094-103-104-031200- CENTRAL COAST CITY SKY/WX TMP DP RH WIND PRES REMARKS FRISCO RAIN 73 71 93 SW13G18 29.97R SWANQUARTER N/A 75 N/A N/A N2G9 29.91R $$ NCZ095-097-098-100-101-031200- SOUTHERN COAST CITY SKY/WX TMP DP RH WIND PRES REMARKS BEAUFORT CLOUDY 74 72 93 W15 29.95R CEDAR ISLAND N/A 75 N/A N/A SW7G14 29.97S JACKSONVILLE LGT RAIN 73 71 93 S7 29.94R FOG PINEY ISLAND LGT RAIN N/A N/A N/A SW13 29.95R WILMINGTON CLOUDY 74 71 91 CALM 29.94R $$ NCZ011>013-027>030-043-044-078>080-089-090>093-098-031200- COASTAL PLAIN CITY SKY/WX TMP DP RH WIND PRES REMARKS AHOSKIE FOG 68 67 98 CALM 29.92R VSB 3/4 CLINTON PTCLDY 74 74 100 CALM 29.93S ELIZABETHTOWN CLOUDY 74 73 97 CALM 29.93R GOLDSBORO CLEAR 73 72 98 S5 29.91R GREENVILLE CLEAR 73 73 100 S3 29.95R HAVELOCK RAIN 74 72 93 SW10 29.96R KENANSVILLE PTCLDY 73 71 96 CALM 29.94S FOG KINSTON PTCLDY 73 73 100 S5 29.94R NEW BERN CLOUDY 75 72 90 S6 29.95R RICHLANDS CLOUDY 73 66 78 SW6 29.94R ROCKY MOUNT PTCLDY 69 68 96 CALM 29.93R FOG WASHINGTON CLEAR 74 72 94 CALM 29.93S WHITEVILLE CLOUDY 75 72 92 CALM 29.93R $$ AMZ130-135-150-152-154-156-158-170-250-252-270-ANZ085-086-088-633-658-670-031200- MARINE OBSERVATIONS STATION/POSITION TIME TEMP WIND PRES WAVE SWELL AIR SEA DIR/SP/G HT/PER HT/PER (UTC) (F) (DEG/KT/KT) (MB) (FT/S) (FT/S) CHESAPEAKE LIGHT 1100 77 220/ 12/ 13 1013.3 64 E VA BEACH 1050 81 81 220/ 10/ 12 1012.6 3/ 5 3/ 5 DUCK 1000 79 73 220/ 9/ 10 1012.2 2 E DUCK 1011 79 N/A 2/11 2/11 OREGON INLET 1000 79 84 240/ 3/ 5 1013.2 13E OREGON INLT 1100 80 N/A 3/11 2/11 HATTERAS CG 1000 72 82 220/ 6/ 7 1013.5 DIAMOND BUOY 1050 75 84 270/ 23/ 29 1013.9 4/ 5 2/11 CAPE LOOKOUT 1100 77 270/ 14/ 18 1013.8 BEAUFORT LAB 1000 76 82 250/ 9/ 15 1013.2 30 SE NEW RVR IN NOT AVBL 27 SE WRIGHTSVLE 1000 78 82 230/ 8/ 12 N/A 5 SE WRIGHTSVLE NOT AVBL 225 S CAPE HAT 1050 82 81 200/ 16/ 19 1016.3 5/ 6 2/11 41 SE CHARLESTON 1050 82 83 210/ 12/ 14 1012.9 5/ 7 3/ 7 $$

USA.gov is the U.S. government's official web portal to all federal, state and local government web resources and services.